{"data":{"norad_id":45152,"intl_designator":"2020-008X","name":"ONEWEB-0047","alt_names":[],"object_type":"PAYLOAD","status":"ACTIVE","operator":null,"country":"UK","launch_date":"2020-02-06","launch_site_code":"TYMSC","launch_vehicle":null,"mission":null,"orbit_class":"UNKNOWN","rcs_meters":null,"size_class":null,"mass_kg":null,"dimensions":null,"purposes":["comms"],"wikipedia_slug":null,"has_3d_model":false,"image_url":null,"decayed_at":null,"tle_current":{"epoch":"2026-05-25T03:58:10.703424Z","epoch_age_seconds":53916,"freshness":"FRESH","line1":"1 45152U 20008X   26145.16540166  .00000602  00000+0  16863-2 0  9997","line2":"2 45152  87.8858  40.8479 0001886  75.6662 284.4675 13.10412250305182","mean_motion":13.1041225,"eccentricity":0.0001886,"inclination_deg":87.8858,"raan_deg":40.8479,"arg_perigee_deg":75.6662,"mean_anomaly_deg":284.4675,"bstar":0.0016863,"rev_number":30518,"period_min":109.88908261503,"perigee_km":1220.1313827789,"apogee_km":1222.9979902551,"semimajor_km":7599.701686517,"source":"CELESTRAK","updated_at":"2026-05-25T13:38:22.337199Z"}}}